This demonstration page uses our WeatherBlox Daily Observations layout. Learn more.

Left ArrowRight Arrow

Hourly Observations for June 30, 2022

Temp ( °F °C ) Dew Point ( °F °C ) Humidity (%) Winds ( mph kmh ) Pressure ( in mb ) Visibility ( mi km ) Precip ( " mm )
12:53 am 00:53 Clear 61 16.1 57 13.9 87 87 Calm 30.24 1024 10 16 0.00 0.00
1:53 am 01:53 Clear 59 15 56 13.3 90 90 Calm 30.22 1023 10 16 0.00 0.00
2:53 am 02:53 Clear 59 15 56 13.3 90 90 Calm 30.21 1023 10 16 0.00 0.00
3:53 am 03:53 Clear 58 14.4 56 13.3 93 93 Calm 30.21 1023 10 16 0.00 0.00
4:53 am 04:53 Clear 58 14.4 55 12.8 90 90 Calm 30.20 1023 10 16 0.00 0.00
5:53 am 05:53 Clear 56 13.3 54 12.2 93 93 Calm 30.21 1023 10 16 0.00 0.00
6:53 am 06:53 Sunny 57 13.9 55 12.8 93 93 Calm 30.21 1023 10 16 0.00 0.00
7:53 am 07:53 Sunny 65 18.3 59 15 81 81 Calm 30.21 1023 10 16 0.00 0.00
8:53 am 08:53 Sunny 70 21.1 59 15 68 68 E 3 6 30.21 1023 10 16 0.00 0.00
9:53 am 09:53 Sunny 78 25.6 58 14.4 50 50 VRB 5 7 30.21 1023 10 16 0.00 0.00
10:53 am 10:53 Sunny 83 28.3 58 14.4 43 43 E 5 7 30.18 1022 10 16 0.00 0.00
11:53 am 11:53 Sunny 85 29.4 59 15 42 42 VRB 5 7 30.16 1022 10 16 0.00 0.00
12:53 pm 12:53 Sunny 88 31.1 58 14.4 36 36 VRB 3 6 30.16 1021 10 16 0.00 0.00
1:53 pm 13:53 Sunny 90 32.2 58 14.4 34 34 VRB 5 7 30.12 1020 10 16 0.00 0.00
2:53 pm 14:53 Sunny 91 32.8 56 13.3 31 31 VRB 6 9 30.10 1019 10 16 0.00 0.00
3:53 pm 15:53 Sunny 91 32.8 54 12.2 28 28 VRB 5 7 30.08 1019 10 16 0.00 0.00
4:53 pm 16:53 Sunny 91 32.8 57 13.9 32 32 VRB 6 9 30.06 1018 10 16 0.00 0.00
5:53 pm 17:53 Sunny 91 32.8 57 13.9 32 32 VRB 6 9 30.05 1018 10 16 0.00 0.00
6:53 pm 18:53 Sunny 89 31.7 60 15.6 38 38 VRB 5 7 30.04 1017 10 16 0.00 0.00
7:53 pm 19:53 Sunny 85 29.4 60 15.6 43 43 VRB 3 6 30.03 1017 10 16 0.00 0.00
8:53 pm 20:53 Sunny 79 26.1 62 16.7 56 56 Calm 30.04 1017 10 16 0.00 0.00
9:53 pm 21:53 Clear 73 22.8 62 16.7 69 69 Calm 30.04 1017 10 16 0.00 0.00
10:53 pm 22:53 Clear 72 22.2 63 17.2 73 73 Calm 30.05 1018 10 16 0.00 0.00
11:53 pm 23:53 Clear 70 21.1 64 17.8 82 82 Calm 30.05 1018 10 16 0.00 0.00

Powered by AerisWeather